C/2007 VO53 ( Spacewatch )

Japanese version
Home page
Updated on December 15, 2011

---------------------------------------------------------------------

* Profile

Discovery Date November 1, 2007
Magnitude 20.6-20.8 mag
Discoverer Spacewatch survey

* Pictures

* Orbital Elements

Epoch 2010 May 4.0 TT = JDT 2455320.5
T 2010 Apr. 26.49833 TT                                 MPC
q   4.8426348            (2000.0)            P               Q
z  +0.0000549      Peri.   75.02982     +0.08637427     -0.49858228
 +/-0.0000005      Node    59.73683     -0.15559127     -0.86189136
e   0.9997344      Incl.   86.99033     +0.98403803     -0.09251480
From 603 observations 2007 Oct. 20-2011 Sept. 21, mean residual 0".5.

* Finding Charts

* Magnitudes Graph

        m1 = 6.0 + 5 log d + 11.0 log r(t - 50)

---------------------------------------------------------------------

The orbital elements are published on M.P.E.C. 2011-S56.
The charts are made with StellaNavigator Ver.8 (AstroArts).
The magnitudes graphs are made with Comet for Windows.

---------------------------------------------------------------------

Copyright(C) Seiichi Yoshida (comet@aerith.net). All rights reserved.